KY4EF Weather Reports


time (UTC)temp
F
wind
direction
speed
knots
gust
knots
rain 1hr
in
rain 24hr
in
rain mn
in
humidity
%
barometer
mb
20260505224028 71 239 0.0 0.0 0.00 0.00 0.00 46 1011.8
20260505223525 71 149 0.0 0.9 0.00 0.00 0.00 46 1011.7
20260505223021 72 205 1.7 1.7 0.00 0.00 0.00 42 1011.8
20260505222517 72 42 0.9 1.7 0.00 0.00 0.00 43 1011.7
20260505222013 72 26 1.7 1.7 0.00 0.00 0.00 45 1011.7
20260505221511 72 31 0.9 0.9 0.00 0.00 0.00 46 1011.7
20260505221007 73 189 0.9 0.9 0.00 0.00 0.00 44 1011.7
20260505220504 74 355 0.9 1.7 0.00 0.00 0.00 43 1011.8
20260505220002 74 171 0.9 0.9 0.00 0.00 0.00 46 1011.7
20260505215500 74 190 1.7 1.7 0.00 0.00 0.00 45 1011.8
20260505214957 75 220 0.9 1.7 0.00 0.00 0.00 40 1011.7
20260505214455 75 307 0.9 0.9 0.00 0.00 0.00 44 1011.7
20260505213952 74 328 0.0 0.0 0.00 0.00 0.00 43 1011.8
20260505213450 73 202 0.9 1.7 0.00 0.00 0.00 44 1011.7
20260505212946 74 128 0.9 0.9 0.00 0.00 0.00 42 1012.0
20260505212443 75 251 0.9 0.9 0.00 0.00 0.00 42 1011.7
20260505211939 77 95 0.9 1.7 0.00 0.00 0.00 39 1011.6
20260505211437 76 198 0.9 1.7 0.00 0.00 0.00 41 1011.7
20260505210933 75 78 3.5 3.5 0.00 0.00 0.00 46 1011.6
20260505210430 78 72 1.7 1.7 0.00 0.00 0.00 37 1011.8
20260505205927 80 303 0.9 0.9 0.00 0.00 0.00 36 1011.7
20260505205426 77 277 0.9 0.9 0.00 0.00 0.00 38 1011.8
20260505204922 77 248 0.9 1.7 0.00 0.00 0.00 38 1011.5
20260505204420 78 103 2.6 2.6 0.00 0.00 0.00 41 1011.4
20260505203917 77 157 2.6 5.2 0.00 0.00 0.00 38 1011.6
20260505203413 80 188 1.7 1.7 0.00 0.00 0.00 35 1011.8
20260505202910 79 201 0.9 1.7 0.00 0.00 0.00 33 1011.8
20260505202406 79 122 0.9 0.9 0.00 0.00 0.00 35 1012.0
20260505201902 78 286 0.0 0.0 0.00 0.00 0.00 34 1011.7
20260505201400 77 125 1.7 1.7 0.00 0.00 0.00 36 1011.8
20260505200858 77 30 0.9 0.9 0.00 0.00 0.00 35 1012.0
20260505200355 81 248 0.9 0.9 0.00 0.00 0.00 32 1011.9
20260505195850 81 244 0.0 0.0 0.00 0.00 0.00 33 1012.0
20260505195348 79 341 0.9 0.9 0.00 0.00 0.00 33 1011.9
20260505194845 79 322 1.7 3.5 0.00 0.00 0.00 32 1012.2
20260505194342 79 299 1.7 2.6 0.00 0.00 0.00 32 1012.0
20260505193837 79 142 1.7 1.7 0.00 0.00 0.00 35 1012.3
20260505193335 78 263 0.0 0.9 0.00 0.00 0.00 33 1012.5
20260505192833 78 255 0.9 0.9 0.00 0.00 0.00 31 1012.6
20260505192331 78 210 0.9 0.9 0.00 0.00 0.00 33 1012.8
20260505191828 78 176 0.9 1.7 0.00 0.00 0.00 36 1012.8
20260505191327 80 292 2.6 2.6 0.00 0.00 0.00 34 1012.9
20260505190823 78 276 0.9 1.7 0.00 0.00 0.00 33 1012.8
20260505190318 80 298 0.9 0.9 0.00 0.00 0.00 33 1013.0
20260505185814 79 290 0.9 1.7 0.00 0.00 0.00 36 1012.9
20260505185311 79 88 0.9 1.7 0.00 0.00 0.00 34 1013.1
20260505184807 83 181 0.9 0.9 0.00 0.00 0.00 34 1013.2
20260505184304 80 228 0.0 0.9 0.00 0.00 0.00 37 1013.2
20260505183801 79 252 0.0 0.0 0.00 0.00 0.00 38 1013.4
20260505183258 79 262 0.0 0.0 0.00 0.00 0.00 36 1013.4
20260505182755 78 231 1.7 1.7 0.00 0.00 0.00 38 1013.4
20260505182252 79 124 2.6 2.6 0.00 0.00 0.00 41 1013.4
20260505181748 78 65 0.9 0.9 0.00 0.00 0.00 40 1013.5
20260505181246 79 260 1.7 1.7 0.00 0.00 0.00 37 1013.8
20260505180742 79 279 0.0 0.9 0.00 0.00 0.00 38 1013.9
20260505180239 78 238 1.7 1.7 0.00 0.00 0.00 40 1014.0
20260505175735 79 226 0.0 0.9 0.00 0.00 0.00 38 1014.0
20260505175232 77 115 0.0 0.9 0.00 0.00 0.00 39 1014.1
20260505174728 78 194 1.7 1.7 0.00 0.00 0.00 38 1013.8
20260505174225 77 201 0.9 1.7 0.00 0.00 0.00 40 1014.0
20260505173721 79 270 0.9 0.9 0.00 0.00 0.00 39 1013.9
20260505173218 76 32 0.0 0.0 0.00 0.00 0.00 40 1013.9
20260505172715 75 259 0.0 0.0 0.00 0.00 0.00 41 1014.0
20260505172212 78 12 1.7 2.6 0.00 0.00 0.00 37 1014.0
20260505171707 80 353 0.9 0.9 0.00 0.00 0.00 38 1014.2
20260505171204 79 205 0.9 1.7 0.00 0.00 0.00 40 1014.4
20260505170701 80 321 0.9 0.9 0.00 0.00 0.00 37 1014.8
20260505170158 78 170 1.7 1.7 0.00 0.00 0.00 37 1014.7
20260505165657 77 159 0.0 0.9 0.00 0.00 0.00 39 1014.8
20260505165154 79 268 0.9 0.9 0.00 0.00 0.00 37 1014.7
20260505164649 79 191 1.7 1.7 0.00 0.00 0.00 35 1014.9
20260505164147 75 5 1.7 1.7 0.00 0.00 0.00 39 1015.0
20260505163645 76 108 2.6 2.6 0.00 0.00 0.00 40 1014.6
20260505163143 77 295 0.9 1.7 0.00 0.00 0.00 40 1014.8
20260505162640 78 289 1.7 1.7 0.00 0.00 0.00 39 1014.7
20260505162137 78 250 0.0 0.0 0.00 0.00 0.00 37 1014.9
20260505161634 79 274 0.9 0.9 0.00 0.00 0.00 36 1014.8
20260505161131 76 299 0.9 0.9 0.00 0.00 0.00 37 1014.9
20260505160629 75 232 1.7 2.6 0.00 0.00 0.00 39 1014.7
20260505160126 76 221 4.3 6.1 0.00 0.00 0.00 38 1014.9
20260505153107 74 9 0.9 0.9 0.00 0.00 0.00 40 1015.1
20260505152603 74 290 0.0 1.7 0.00 0.00 0.00 42 1015.5
20260505152058 74 298 0.9 1.7 0.00 0.00 0.00 41 1015.0
20260505151553 74 232 0.9 1.7 0.00 0.00 0.00 41 1015.0
20260505151051 71 289 0.9 0.9 0.00 0.00 0.00 44 1015.1
20260505150547 69 298 0.0 0.9 0.00 0.00 0.00 46 1014.7
20260505140513 67 247 0.9 1.7 0.00 0.00 0.00 58 1015.0
20260505124932 51 260 0.0 0.0 0.00 0.00 0.00 90 1014.6
20260505124429 49 260 0.0 0.0 0.00 0.00 0.00 94 1014.7
20260505123925 48 260 0.0 0.0 0.00 0.00 0.00 96 1014.7
20260505123422 47 260 0.0 0.0 0.00 0.00 0.00 98 1014.9
20260505122917 46 261 0.0 0.0 0.00 0.00 0.00 99 1014.7
20260505122415 46 260 0.0 0.0 0.00 0.00 0.00 99 1014.6
20260505121912 45 274 0.0 0.0 0.00 0.00 0.00 99 1014.6
20260505121409 44 274 0.0 0.0 0.00 0.00 0.00 99 1014.4
20260505120904 44 274 0.0 0.0 0.00 0.00 0.00 99 1014.6
20260505120401 44 328 0.0 0.0 0.00 0.00 0.00 99 1014.5
20260505115900 44 327 0.0 0.0 0.00 0.00 0.00 99 1014.5
20260505115357 44 327 0.0 0.0 0.00 0.00 0.00 99 1014.5
20260505114855 43 328 0.0 0.0 0.00 0.00 0.00 99 1014.4
20260505114351 43 327 0.0 0.0 0.00 0.00 0.00 99 1014.5
20260505113847 43 328 0.0 0.0 0.00 0.00 0.00 99 1014.2
20260505113344 43 327 0.0 0.0 0.00 0.00 0.00 99 1014.4
20260505112840 43 340 0.0 0.0 0.00 0.00 0.00 99 1014.1
20260505112337 43 340 0.0 0.0 0.00 0.00 0.00 99 1014.3
20260505111833 43 340 0.0 0.0 0.00 0.00 0.00 99 1014.0
20260505111329 42 323 0.0 0.0 0.00 0.00 0.00 99 1014.1
20260505110825 43 292 0.0 0.0 0.00 0.00 0.00 99 1013.6
20260505110322 42 292 0.0 0.0 0.00 0.00 0.00 99 1013.8
20260505101757 44 318 0.0 0.0 0.00 0.00 0.00 99 1014.0
20260505101252 43 311 0.0 0.0 0.00 0.00 0.00 99 1013.9
20260505100749 43 305 0.0 0.0 0.00 0.00 0.00 99 1013.8
20260505100245 44 314 0.0 0.0 0.00 0.00 0.00 99 1013.6
20260505095741 43 296 0.0 0.0 0.00 0.00 0.00 98 1013.8
20260505095239 44 296 0.0 0.0 0.00 0.00 0.00 98 1013.9
20260505094734 44 296 0.0 0.0 0.00 0.00 0.00 98 1013.9
20260505094231 45 292 0.9 0.9 0.00 0.00 0.00 98 1014.0
20260505093727 44 31 0.9 0.9 0.00 0.00 0.00 99 1013.9
20260505093225 44 316 0.0 0.0 0.00 0.00 0.00 98 1013.9
20260505092721 44 311 0.0 0.0 0.00 0.00 0.00 98 1014.0
20260505092221 45 307 0.0 0.0 0.00 0.00 0.00 98 1013.9
20260505091717 45 51 0.0 0.0 0.00 0.00 0.00 98 1013.9
20260505091215 45 304 0.0 0.0 0.00 0.00 0.00 98 1013.8
20260505090713 45 305 0.0 0.0 0.00 0.00 0.00 99 1014.0
20260505090211 44 306 0.0 0.0 0.00 0.00 0.00 98 1014.0
20260505085708 45 312 0.0 0.0 0.00 0.00 0.00 98 1013.8
20260505085206 45 289 0.0 0.0 0.00 0.00 0.00 98 1014.0
20260505084703 45 289 0.0 0.0 0.00 0.00 0.00 98 1013.6
20260505084202 45 289 0.0 0.0 0.00 0.00 0.00 98 1013.9
20260505083659 45 290 0.0 0.0 0.00 0.00 0.00 98 1013.9
20260505083155 45 290 0.0 0.0 0.00 0.00 0.00 97 1013.8
20260505082651 45 290 0.0 0.0 0.00 0.00 0.00 97 1013.9
20260505082148 46 291 0.0 0.9 0.00 0.00 0.00 97 1013.6
20260505081644 46 302 0.0 0.0 0.00 0.00 0.00 97 1013.9
20260505081142 45 303 0.0 0.0 0.00 0.00 0.00 97 1013.9
20260505080638 45 303 0.0 0.0 0.00 0.00 0.00 97 1013.8
20260505080134 46 302 0.0 0.0 0.00 0.00 0.00 96 1013.8
20260505075631 46 325 0.0 0.0 0.00 0.00 0.00 96 1013.6
20260505075127 46 313 0.0 0.0 0.00 0.00 0.00 97 1013.6
20260505074624 46 313 0.0 0.0 0.00 0.00 0.00 96 1013.9
20260505074121 46 310 0.0 0.0 0.00 0.00 0.00 95 1013.6
20260505073619 46 343 0.0 0.0 0.00 0.00 0.00 95 1013.6
20260505073117 47 315 0.0 0.0 0.00 0.00 0.00 95 1013.8
20260505072612 47 305 0.0 0.0 0.00 0.00 0.00 95 1013.6
20260505072109 47 322 0.0 0.0 0.00 0.00 0.00 94 1013.5
20260505071605 47 301 0.0 0.0 0.00 0.00 0.00 94 1013.5
20260505071103 47 338 0.0 0.0 0.00 0.00 0.00 95 1013.8
20260505070600 47 246 0.0 0.0 0.00 0.00 0.00 95 1013.6
20260505070056 47 246 0.0 0.0 0.00 0.00 0.00 95 1013.5
20260505065552 47 245 0.0 0.0 0.00 0.00 0.00 95 1013.6
20260505065049 47 282 0.0 0.0 0.00 0.00 0.00 94 1013.6
20260505064546 47 294 0.0 0.0 0.00 0.00 0.00 94 1013.4
20260505064044 48 304 0.0 0.0 0.00 0.00 0.00 93 1013.9
20260505063541 48 248 0.0 0.0 0.00 0.00 0.00 94 1013.5
20260505063037 48 246 0.0 0.9 0.00 0.00 0.00 94 1013.8
20260505062534 48 338 0.0 0.0 0.00 0.00 0.00 94 1013.6
20260505062031 48 298 0.0 0.0 0.00 0.00 0.00 94 1013.6
20260505061528 48 298 0.0 0.0 0.00 0.00 0.00 93 1013.4
20260505061026 48 297 0.0 0.0 0.00 0.00 0.00 93 1013.6
20260505060523 48 298 0.0 0.0 0.00 0.00 0.00 92 1013.6
20260505060020 48 269 0.0 0.0 0.00 0.00 0.00 93 1013.6
20260505055515 48 239 0.0 0.9 0.00 0.00 0.00 93 1013.6
20260505055012 48 258 0.0 0.0 0.00 0.00 0.00 93 1013.6
20260505054510 48 262 0.0 0.0 0.00 0.00 0.00 93 1013.6
20260505054008 49 257 0.0 0.0 0.00 0.00 0.00 92 1013.8
20260505053504 49 257 0.0 0.0 0.00 0.00 0.00 91 1013.8
20260505053001 50 203 0.0 0.0 0.00 0.00 0.00 91 1013.9
20260505052458 50 322 0.0 0.0 0.00 0.00 0.00 91 1013.6
20260505051955 49 291 0.0 0.9 0.00 0.00 0.00 91 1013.9
20260505051452 50 327 0.0 0.0 0.00 0.00 0.00 91 1013.8
20260505050951 50 319 0.0 0.0 0.00 0.00 0.00 90 1013.9
20260505050448 50 288 0.0 0.0 0.00 0.00 0.00 90 1013.6
20260505041416 52 8 0.0 0.0 0.00 0.00 0.00 85 1013.6
20260505040913 52 284 0.0 0.0 0.00 0.00 0.00 85 1013.9
20260505040411 52 296 0.0 0.0 0.00 0.00 0.00 86 1013.5
20260505035907 52 341 0.0 0.0 0.00 0.00 0.00 85 1013.6
20260505035403 52 289 0.0 0.0 0.00 0.00 0.00 86 1013.8
20260505034901 52 290 0.0 0.0 0.00 0.00 0.00 85 1013.9
20260505034357 52 237 0.0 0.0 0.00 0.00 0.00 84 1013.8
20260505033854 53 277 0.0 0.0 0.00 0.00 0.00 84 1013.9
20260505033351 53 304 0.0 0.0 0.00 0.00 0.00 83 1013.6
20260505032849 53 350 0.0 0.0 0.00 0.00 0.00 83 1013.9
20260505032345 53 294 0.0 0.0 0.00 0.00 0.00 82 1013.6
20260505031842 53 296 0.0 0.0 0.00 0.00 0.00 82 1013.8
20260505031339 54 258 0.0 0.0 0.00 0.00 0.00 81 1013.9
20260505030836 54 288 0.0 0.0 0.00 0.00 0.00 81 1013.9
20260505030332 54 116 0.0 0.0 0.00 0.00 0.00 79 1014.0
20260505025828 55 302 0.0 0.0 0.00 0.00 0.00 79 1013.9
20260505025326 55 302 0.0 0.0 0.00 0.00 0.00 78 1014.2
20260505024824 55 302 0.0 0.9 0.00 0.00 0.00 78 1013.9
20260505024321 55 302 0.0 0.0 0.00 0.00 0.00 78 1013.9
20260505023818 55 302 0.0 0.0 0.00 0.00 0.00 78 1014.2
20260505023315 56 302 0.0 0.0 0.00 0.00 0.00 76 1014.1
20260505022812 56 302 0.0 0.0 0.00 0.00 0.00 75 1014.2
20260505022309 57 302 0.0 0.0 0.00 0.00 0.00 75 1014.0
20260505021806 57 302 0.0 0.0 0.00 0.00 0.00 73 1014.1
20260505021303 57 302 0.0 0.0 0.00 0.00 0.00 73 1014.1
20260505020759 57 302 0.0 0.0 0.00 0.00 0.00 73 1014.0
20260505020254 57 304 0.0 0.0 0.00 0.00 0.00 73 1013.6
20260505015752 58 303 0.0 0.0 0.00 0.00 0.00 72 1013.8
20260505015248 58 308 0.0 0.0 0.00 0.00 0.00 71 1013.5
20260505014746 59 308 0.0 0.0 0.00 0.00 0.00 69 1013.6
20260505014243 59 296 0.0 0.0 0.00 0.00 0.00 66 1013.8
20260505013739 60 206 0.0 0.0 0.00 0.00 0.00 65 1013.6
20260505013237 59 284 0.0 0.0 0.00 0.00 0.00 67 1013.5
20260505012735 60 280 0.0 0.0 0.00 0.00 0.00 64 1013.6
20260505012232 60 109 0.0 0.0 0.00 0.00 0.00 65 1013.5
20260505011727 60 109 0.0 0.0 0.00 0.00 0.00 65 1013.2
20260505011225 61 279 0.0 0.0 0.00 0.00 0.00 64 1013.4
20260505010720 62 280 0.0 0.0 0.00 0.00 0.00 60 1013.1
20260505010217 62 278 0.0 0.0 0.00 0.00 0.00 61 1013.2
20260505005713 63 252 0.0 0.0 0.00 0.00 0.00 58 1013.1
20260505005211 63 251 0.0 0.0 0.00 0.00 0.00 56 1013.2
20260505004707 64 6 0.0 0.9 0.00 0.00 0.00 56 1013.0
20260505004204 64 148 0.0 0.0 0.00 0.00 0.00 53 1013.1
20260505003701 65 147 0.9 0.9 0.00 0.00 0.00 52 1012.9
20260505003159 65 147 0.9 1.7 0.00 0.00 0.00 51 1012.8
20260505002655 65 175 0.9 0.9 0.00 0.00 0.00 54 1012.8
20260505002153 66 175 0.9 0.9 0.00 0.00 0.00 50 1012.9
20260505001649 66 140 0.9 0.9 0.00 0.00 0.00 49 1012.7
20260505001147 66 193 0.0 0.0 0.00 0.00 0.00 50 1012.9
20260505000644 68 224 0.0 0.9 0.00 0.00 0.00 48 1012.7
20260505000142 69 225 0.0 0.0 0.00 0.00 0.00 46 1012.8
20260504235638 69 315 0.9 0.9 0.00 0.00 0.00 43 1012.7
20260504235135 70 249 0.0 0.0 0.00 0.00 0.00 45 1012.7
20260504234632 69 268 0.9 0.9 0.00 0.00 0.00 43 1012.7
20260504234129 70 227 0.0 0.0 0.00 0.00 0.00 47 1012.4
20260504233625 71 246 0.0 0.9 0.00 0.00 0.00 44 1012.4
20260504233121 71 283 0.9 1.7 0.00 0.00 0.00 42 1012.4
20260504232619 71 292 0.0 0.0 0.00 0.00 0.00 45 1012.3
20260504232116 72 263 0.0 0.9 0.00 0.00 0.00 44 1012.6
20260504231613 72 276 0.0 0.0 0.00 0.00 0.00 44 1012.4
20260504231108 73 208 0.9 0.9 0.00 0.00 0.00 44 1012.4
20260504230604 73 247 0.0 0.0 0.00 0.00 0.00 44 1012.3
20260504230059 73 271 0.0 0.0 0.00 0.00 0.00 43 1012.4
20260504225555 73 310 1.7 2.6 0.00 0.00 0.00 42 1012.2
20260504225052 74 294 0.0 0.0 0.00 0.00 0.00 43 1012.3
20260504224548 74 234 0.9 0.9 0.00 0.00 0.00 42 1012.3